Вернуться в каталог

ONEWEB-0232

АктивенСвязьPO
NORAD 48781·PAYLOAD·🇬🇧 United Kingdom

Запущен May 28, 2021 с Vostochny Cosmodrome

Loading…

Ближайшие Пролёты (ближайшие 24 часа)

TLE

СвежийSource: CelesTrak SupGP

Эпоха: Sep 14, 2026, 19:48 UTC

1 48781C 21045Q   26257.82517778  .00002689  00000+0  71512-2 0  2576
2 48781  87.8986 241.3185 0001968  85.7672 311.5916 13.15541423    15

Отслеживайте ONEWEB-0232 в реальном времени с AllMySat

Download on the App Store